Location: Burla
(50.9568°N, 10.4983°E)
Time: 21:08:52
(UTC+00:00)

Cosmos 2084 - Pass Details

Date: 18 January 2026
Orbit: 536 x 564 km, 62.8° (Epoch: 17 February)

Event Time Altitude Azimuth Distance (km) Brightness Sun altitude
Exits shadow 04:30:27 34° 18° (NNE) 922 4.5 -24.8°
Drops below altitude 10° 04:33:04 10° 39° (NE) 1,842 6.4 -24.4°
Sets 04:35:20 0° 45° (NE) 2,734 7.5 -24.1°
